Location: Unspecified
(29.9680°N, 0.0000°E)
Time: 13:53:57
(UTC+00:00)

Explorer 7 - All Passes

Search period start: 25 June 2019 00:00
Search period end: 05 July 2019 00:00
Orbit: 485 x 680 km, 50.3° (Epoch: 24 June)

Date Brightness Start Highest point End Pass type
(mag) Time Alt. Az. Time Alt. Az. Time Alt. Az.
25 Jun - 05:33:51 10° S 05:37:05 24° SE 05:40:29 10° ENE daylight
25 Jun - 07:13:45 10° WSW 07:17:27 33° NW 07:21:25 10° NNE daylight
25 Jun - 12:22:38 10° N 12:24:30 12° NNE 12:26:23 10° NE daylight
25 Jun - 14:01:15 10° NW 14:05:58 52° NE 14:10:46 10° ESE daylight
25 Jun - 15:42:41 10° WNW 15:46:20 21° SW 15:50:01 10° S daylight
26 Jun - 05:38:13 10° SSW 05:42:00 47° SE 05:46:01 10° ENE daylight
26 Jun - 07:19:35 10° W 07:22:45 21° NNW 07:26:04 10° NNE daylight
26 Jun - 12:26:50 10° N 12:29:57 17° NNE 12:33:05 10° ENE daylight
26 Jun - 14:06:13 10° NW 14:11:05 87° NE 14:15:59 10° SE daylight
26 Jun - 15:49:30 10° WSW 15:51:11 12° SW 15:52:53 10° SW daylight
27 Jun - 05:43:04 10° SW 05:47:00 88° NW 05:51:13 10° NE daylight
27 Jun - 07:25:52 10° WNW 07:28:07 14° NNW 07:30:27 10° N daylight
27 Jun - 12:31:23 10° NNW 12:35:17 24° NE 12:39:15 10° E daylight
27 Jun - 14:11:23 10° NW 14:16:06 54° SW 14:20:53 10° SSE daylight
28 Jun - 04:09:38 10° SSE 04:11:59 15° SE 04:14:24 10° E visible
28 Jun - 05:48:18 10° WSW 05:52:06 46° NW 05:56:10 10° NE daylight
28 Jun - 12:36:06 10° NNW 12:40:31 37° NE 12:45:03 10° ESE daylight
28 Jun - 14:16:50 10° WNW 14:21:04 31° SW 14:25:21 10° S daylight
29 Jun - 04:13:28 10° S 04:16:51 29° SE 04:20:23 10° ENE visible
29 Jun - 05:53:54 10° W 05:57:19 27° NW 06:00:56 10° NNE daylight
29 Jun - 11:02:10 10° N 11:04:21 13° NNE 11:06:34 10° NE daylight
29 Jun - 12:40:58 10° NW 12:45:40 61° NE 12:50:31 10° ESE daylight
29 Jun - 14:22:46 10° W 14:25:57 18° SW 14:29:10 10° SSW daylight
30 Jun - 04:18:01 10° SSW 04:21:48 59° SE 04:25:47 10° NE visible
30 Jun - 05:59:53 10° WNW 06:02:38 17° NNW 06:05:29 10° NNE daylight
30 Jun - 11:06:28 10° NNW 11:09:45 19° NNE 11:13:05 10° ENE daylight
30 Jun - 12:45:59 10° NW 12:50:44 79° SW 12:55:37 10° SE daylight
01 Jul - 04:23:00 10° SW 04:26:50 70° NW 04:30:53 10° NE visible
01 Jul - 06:06:31 10° NW 06:08:02 12° NNW 06:09:35 10° N daylight
01 Jul - 11:11:04 10° NNW 11:15:02 27° NE 11:19:09 10° E daylight
01 Jul - 12:51:14 10° WNW 12:55:44 44° SW 13:00:23 10° SSE daylight
02 Jul - 02:49:02 10° S 02:51:44 19° SE 02:54:31 10° E visible
02 Jul - 04:28:22 10° WSW 04:31:58 37° NW 04:35:46 10° NNE visible
02 Jul - 11:15:49 10° NNW 11:20:15 43° NE 11:24:50 10° ESE daylight
02 Jul - 12:56:47 10° WNW 13:00:41 25° SW 13:04:40 10° S daylight
03 Jul - 02:53:09 10° SSW 02:56:38 36° SE 03:00:15 10° ENE visible
03 Jul - 04:34:06 10° W 04:37:12 22° NW 04:40:26 10° NNE visible
03 Jul - 09:41:46 10° N 09:44:11 14° NNE 09:46:40 10° ENE daylight
03 Jul - 11:20:43 10° NW 11:25:21 73° NE 11:30:11 10° SE daylight
03 Jul - 13:03:05 10° W 13:05:35 14° SW 13:08:06 10° SSW daylight
04 Jul - 02:57:51 10° SW 03:01:36 74° SE 03:05:33 10° NE visible
04 Jul - 04:40:18 10° WNW 04:42:33 15° NNW 04:44:51 10° N daylight
04 Jul - 09:46:09 10° NNW 09:49:32 20° NNE 09:53:03 10° E daylight
04 Jul - 11:25:48 10° NW 11:30:24 65° SW 11:35:12 10° SE daylight
